Hutchinson, KS

4:28 PM CDT on September 25, 2016 (GMT -0500)
Hutchinson Municipal

Weather History for KHUT - April, 2014

Change the Weather History Date:

Monday, April 21, 2014

  Actual Average Record
Temperature  
Mean Temperature 66 °F -  
Max Temperature 82 °F 67 °F 84 °F (2001)
Min Temperature 51 °F 41 °F 34 °F (1998)
Cooling Degree Days 2    
Growing Degree Days 16 (Base 50)    
Moisture  
Dew Point 47 °F    
Average Humidity 69    
Maximum Humidity 97    
Minimum Humidity 19    
Precipitation  
Precipitation 0.00 in - - ()
Sea Level Pressure  
Sea Level Pressure 29.99 in    
Wind  
Wind Speed 6 mph (NNE)    
Max Wind Speed 22 mph    
Max Gust Speed 30 mph    
Visibility 6 miles    
Events Fog    
Averages and records for this station are not official NWS values.
T = Trace of Precipitation, MM = Missing Value Source: NWS Daily Summary

Daily Weather History Graph

Daily Weather History Graph

Search for Another Location

Airport or City:

Trip Planner

Search our weather history database for the weather conditions in past years. The results will help you decide how hot, cold, wet, or windy it might be!

Date:

Astronomy

Apr. 21, 2014 Rise Set
Actual Time 6:47 AM CDT 8:13 PM CDT
Civil Twilight 6:20 AM CDT 8:40 PM CDT
Nautical Twilight 5:47 AM CDT 9:14 PM CDT
Astronomical Twilight 5:12 AM CDT 9:49 PM CDT
Moon 1:42 AM CDT (4/21) 12:17 PM CDT (4/21)
Length of Visible Light 14h 20m
Length of Day
13h 25m
Waning Gibbous, 57% of the Moon is Illuminated
Apr 21
Waning Gibbous
Apr 22
Last Quarter
Apr 29
New
May 6
First Quarter
May 14
Full

Hourly Weather History & Observations

Time (CDT) Temp. Dew Point Humidity Pressure Visibility Wind Dir Wind Speed Gust Speed Precip Events Conditions
12:52 AM 60.1 °F 53.1 °F 78% 29.94 in 10.0 mi South 9.2 mph - N/A   Clear
1:52 AM 57.0 °F 52.0 °F 83% 29.94 in 9.0 mi SSE 4.6 mph - N/A   Partly Cloudy
2:52 AM 55.0 °F 51.1 °F 86% 29.94 in 8.0 mi SW 4.6 mph - N/A   Mostly Cloudy
3:52 AM 54.0 °F 51.1 °F 90% 29.92 in 6.0 mi South 5.8 mph - N/A   Partly Cloudy
4:52 AM 53.1 °F 51.1 °F 93% 29.93 in 4.0 mi Calm Calm - N/A   Partly Cloudy
5:32 AM 51.1 °F 48.9 °F 92% 29.98 in 1.8 mi SSE 3.5 mph - N/A   Clear
5:48 AM 51.8 °F 50.0 °F 94% 29.98 in 0.8 mi SSE 3.5 mph - N/A   Mist
5:52 AM 51.1 °F 48.9 °F 92% 29.94 in 0.5 mi SE 3.5 mph - N/A Fog Fog
6:05 AM 51.1 °F 50.0 °F 96% 29.99 in 0.2 mi SSE 3.5 mph - N/A Fog Fog
6:15 AM 53.1 °F 51.1 °F 93% 29.99 in 0.8 mi SSW 3.5 mph - N/A   Mostly Cloudy
6:23 AM 52.0 °F 51.1 °F 97% 29.99 in 2.0 mi South 3.5 mph - N/A   Mostly Cloudy
6:32 AM 53.1 °F 51.1 °F 93% 30.00 in 3.0 mi Calm Calm - N/A   Overcast
6:44 AM 52.0 °F 50.0 °F 93% 30.00 in 2.5 mi Calm Calm - N/A   Overcast
6:52 AM 52.0 °F 51.1 °F 97% 29.97 in 1.5 mi Calm Calm - N/A   Mostly Cloudy
7:01 AM 52.0 °F 51.1 °F 97% 30.01 in 0.2 mi Calm Calm - N/A   Mostly Cloudy
7:08 AM 51.1 °F 48.9 °F 92% 30.01 in 1.5 mi Calm Calm - N/A   Scattered Clouds
7:31 AM 51.1 °F 50.0 °F 96% 30.02 in 1.2 mi Calm Calm - N/A   Mostly Cloudy
7:40 AM 52.0 °F 50.0 °F 93% 30.03 in 1.2 mi Calm Calm - N/A   Overcast
7:52 AM 54.0 °F 52.0 °F 93% 29.99 in 1.2 mi Calm Calm - N/A   Mostly Cloudy
7:59 AM 55.0 °F 53.1 °F 93% 30.03 in 2.0 mi Calm Calm - N/A   Overcast
8:17 AM 55.9 °F 54.0 °F 93% 30.03 in 3.0 mi NNW 3.5 mph - N/A   Mostly Cloudy
8:52 AM 60.1 °F 55.0 °F 83% 29.98 in 7.0 mi NW 4.6 mph - N/A   Partly Cloudy
9:52 AM 64.9 °F 54.0 °F 68% 29.96 in 10.0 mi North 5.8 mph - N/A   Scattered Clouds
10:52 AM 70.0 °F 55.0 °F 59% 29.98 in 10.0 mi North 15.0 mph - N/A   Clear
11:52 AM 73.0 °F 51.1 °F 46% 30.00 in 10.0 mi North 20.7 mph 29.9 mph N/A   Overcast
12:52 PM 70.0 °F 52.0 °F 53% 30.00 in 10.0 mi North 16.1 mph 23.0 mph N/A   Overcast
1:52 PM 73.9 °F 50.0 °F 43% 29.99 in 10.0 mi North 10.4 mph - N/A   Scattered Clouds
2:52 PM 80.1 °F 46.9 °F 31% 29.97 in 10.0 mi NNE 16.1 mph 28.8 mph N/A   Clear
3:52 PM 82.0 °F 46.0 °F 28% 29.95 in 10.0 mi North 13.8 mph 25.3 mph N/A   Partly Cloudy
4:52 PM 80.1 °F 44.1 °F 28% 29.95 in 10.0 mi North 18.4 mph 26.5 mph N/A   Clear
5:52 PM 80.1 °F 37.9 °F 22% 29.96 in 10.0 mi North 16.1 mph 28.8 mph N/A   Clear
6:52 PM 77.0 °F 30.9 °F 19% 29.99 in 10.0 mi North 21.9 mph 28.8 mph N/A   Clear
7:52 PM 72.0 °F 28.9 °F 20% 30.01 in 10.0 mi North 13.8 mph - N/A   Clear
8:52 PM 64.9 °F 28.9 °F 26% 30.03 in 10.0 mi NNE 8.1 mph - N/A   Clear
9:52 PM 61.0 °F 30.0 °F 31% 30.04 in 10.0 mi NNE 5.8 mph - N/A   Clear
10:52 PM 59.0 °F 30.0 °F 33% 30.06 in 10.0 mi NNE 6.9 mph - N/A   Clear
11:52 PM 57.0 °F 28.0 °F 33% 30.07 in 10.0 mi North 8.1 mph - N/A   Clear